Location: Norton
(51.3000°N, 0.8167°E)
Time: 02:13:42
(UTC+00:00)

Helios 1A Rocket - Pass Details

Date: 03 March 2021
Orbit: 563 x 585 km, 98.3° (Epoch: 13 April)

Event Time Altitude Azimuth Distance (km) Brightness Sun altitude
Rises 19:14:51 0° 178° (S) 2,767 6.3 -15.4°
Reaches altitude 10° 19:17:03 10° 183° (S) 1,871 5.5 -15.7°
Maximum altitude 19:20:59 49° 259° (W) 741 3.9 -16.4°
Drops below altitude 10° 19:24:56 10° 335° (NNW) 1,876 6.0 -17.0°
Sets 19:27:08 0° 341° (NNW) 2,776 6.8 -17.3°
